Overview Statistics Trail Chart Weather Telemetry Raw packets
 

This is the latest recevied weather packets stored in our database for station/object HP1MRA-15. If no packets are shown the sender has not sent any weather packets the latest 10 day(s).

<< 73 74 75 76 77 78 79 >>
Time Temp. Humidity Pressure Rain* Wind** Luminosity Snow
1788192271 32.78° C 76% 1004.5 hPa 0 mm - - -
1788192015 32.78° C 78% 1004.5 hPa 0 mm - - -
1788191971 32.78° C 78% 1004.4 hPa 0 mm - - -
1788191671 32.78° C 78% 1004.3 hPa 0 mm - - -
1788191370 32.78° C 77% 1004.3 hPa 0 mm - - -
1788191113 32.22° C 78% 1004.2 hPa 0 mm - - -
1788191071 32.22° C 76% 1004.1 hPa 0 mm - - -
1788190771 32.22° C 74% 1004.1 hPa 0 mm - - -
1788190470 32.78° C 78% 1004.1 hPa 0 mm - - -
1788190213 32.78° C 78% 1004.1 hPa 0 mm - - -
1788190171 32.78° C 78% 1004.1 hPa 0 mm - - -
1788189871 32.22° C 80% 1004.1 hPa 0 mm - - -
1788189570 31.67° C 80% 1004.2 hPa 0 mm - - -
1788189313 31.67° C 80% 1004.3 hPa 0 mm - - -
1788189271 31.67° C 80% 1004.3 hPa 0 mm - - -
1788188971 31.11° C 80% 1004.4 hPa 0 mm - - -
1788188673 31.11° C 80% 1004.5 hPa 0 mm - - -
1788188413 30.56° C 81% 1004.5 hPa 0 mm - - -
1788188371 30.56° C 81% 1004.5 hPa 0 mm - - -
1788188070 30.56° C 81% 1004.6 hPa 0 mm - - -
1788187770 30° C 81% 1004.6 hPa 0 mm - - -
1788187513 30° C 81% 1004.7 hPa 0 mm - - -
1788187471 30° C 81% 1004.7 hPa 0 mm - - -
1788187170 30° C 80% 1004.7 hPa 0 mm - - -
1788186871 30° C 81% 1004.7 hPa 0 mm - - -

* Rain latest hour (hover to see other rain measurements)
** Current wind speed in m/s (hover to see current wind gust speed)